Regional Weather Roundup
Issued by NWS

Home | Current Version | Previous Version | Text Only | Print | Product List | Glossary Off
Versions: 1 2 3 4 5 6 7 8 9 10 11 12 13 14 15 16 17 18 19 20 21 22 23 24 25 26 27 28 29 30 31 32 33 34 35 36 37 38 39 40 41 42 43 44 45 46 47 48 49 50

000
ASUS45 KSLC 220010
RWRUT

UTAH REGIONAL WEATHER ROUNDUP
NATIONAL WEATHER SERVICE SALT LAKE CITY UT
600 PM MDT SAT OCT 21 2017

UTZ001>011-023>025-220100-

NORTHERN UTAH

CITY           SKY/WX    TMP DP  RH WIND       PRES   REMARKS
BRIGHAM CITY   CLOUDY    49  17  28 S3        30.26R
HILL AFB       CLOUDY    48  17  29 SE3       30.25S
LOGAN          MOCLDY    50  16  25 W6        30.24R
OGDEN          CLOUDY    49  19  30 SE3       30.25R
SALT LAKE CITY MOCLDY    53  20  27 N3        30.25R
TOOELE VALLEY  CLOUDY    52  25  35 NE5       30.24S
WENDOVER       CLEAR     52  19  27 SE7       30.23R
HEBER CITY       N/A     46  18  31 S7        30.24R
WEST JORDAN    CLOUDY    48  24  38 NW3       30.26R

$$

UTZ011>015-024>027-220100-

CENTRAL/NORTHEAST UTAH

CITY           SKY/WX    TMP DP  RH WIND       PRES   REMARKS
PROVO AIRPORT  PTCLDY    52  19  27 CALM      30.27R
MOAB/CANYONLAN CLEAR     55  10  16 VRB5      30.19R
DELTA          CLEAR     50  10  20 S3        30.27R
PRICE          CLEAR     50  14  23 SW8       30.21R
RICHFIELD      CLEAR     52  16  24 CALM      30.26R
ROOSEVELT      CLEAR     52  16  24 W13       30.20R
VERNAL         CLEAR     50  14  23 S7        30.18R

$$

UTZ013>016-019>022-027-220100-

SOUTHERN UTAH

CITY           SKY/WX    TMP DP  RH WIND       PRES   REMARKS
BRYCE CANYON   CLEAR     49   5  16 W14       30.29R
CEDAR CITY     CLEAR     55   9  16 N5        30.23S
MILFORD        CLEAR     57   7  13 NE5       30.23S
ST GEORGE      CLEAR     67  13  12 SW5       30.17S
HANKSVILLE     CLEAR     55  10  16 CALM      30.22R
KANAB          CLEAR     61   9  12 S13       30.25R
BLANDING         N/A     52   4  14 NW12      30.29R

$$

REGIONAL REPORTS     COLORADO/ARIZONA

CITY           SKY/WX    TMP DP  RH WIND       PRES   REMARKS
CRAIG, CO      CLEAR     39  25  57 SW8       30.21R WCI  33
GRAND JUNCTION CLEAR     53  10  18 NW9       30.20R
RIFLE, CO      CLEAR     50  17  27 W7        30.21R
MONTROSE, CO   CLEAR     50  12  21 N6        30.24R
CORTEZ, CO     CLEAR     53  -1  11 NW13      30.21R
COLORADO CITY    N/A     61  12  15 W8        30.26R
PAGE, AZ       CLEAR     61  12  14 E6        30.19S
GRAND CANYON   CLEAR     56   4  12 NW5       30.27R
KINGMAN, AZ    CLEAR     67  12  12 N13       30.18R
FLAGSTAFF, AZ  CLEAR     57  12  17 E9        30.26R

$$

REGIONAL REPORTS    NEVADA/IDAHO/WYOMING

CITY           SKY/WX    TMP DP  RH WIND       PRES   REMARKS
LAS VEGAS, NV  MOSUNNY   72  14  11 NE8       30.16S
ELY, NY        CLOUDY    54  24  31 NW10      30.26R
ELKO, NV       CLOUDY    51  22  31 W13       30.24R
POCATELLO, ID  CLOUDY    48  22  35 W12       30.19R
BURLEY, ID     CLOUDY    50  26  39 W7        30.17S
FORT BRIDGER,    N/A     40  13  33 W21       30.25R WCI  30
EVANSTON, WY   CLEAR     38  12  34 SW17      30.24R WCI  28
ROCK SPRINGS,  CLEAR     39  10  30 W24G30    30.18R WCI  28
KEMMERER, WY   CLOUDY    36  14  41 W18G28    30.21R WCI  25

$$



USA.gov is the U.S. government's official web portal to all federal, state and local government web resources and services.